EW7643 Weather Reports


Display with metric or nautical units.
time (UTC)temp
F
wind
direction
speed
MPH
gust
MPH
rain 1hr
in
rain 24hr
in
rain mn
in
humidity
%
barometer
mb
20260504050004 56 109 0.0 0.0 0.00 0.02 0.00 81 1018.7
20260504044509 56 109 0.0 0.0 0.00 0.02 0.02 80 1018.8
20260504043010 57 109 0.0 0.0 0.00 0.02 0.02 78 1018.9
20260504041513 58 109 0.0 0.0 0.00 0.02 0.02 77 1018.8
20260504040036 59 109 0.0 0.0 0.00 0.02 0.02 75 1018.7
20260504034504 60 109 0.0 0.0 0.00 0.02 0.02 74 1018.8
20260504033005 61 109 0.0 0.0 0.00 0.02 0.02 72 1018.8
20260504031513 62 109 0.0 0.0 0.00 0.02 0.02 70 1018.7
20260504030017 63 109 0.0 0.0 0.00 0.02 0.02 68 1018.6
20260504024523 63 109 0.0 0.0 0.00 0.02 0.02 67 1018.7
20260504023003 64 109 0.0 0.0 0.00 0.02 0.02 66 1018.6
20260504021505 65 109 0.0 0.0 0.00 0.02 0.02 64 1018.6
20260504020010 67 109 0.0 0.0 0.00 0.02 0.02 61 1018.6
20260504014522 67 116 0.0 1.0 0.00 0.02 0.02 61 1018.6
20260504013020 68 111 0.0 1.0 0.00 0.02 0.02 59 1018.6
20260504011506 69 124 0.0 2.0 0.00 0.02 0.02 57 1018.5
20260504010007 69 116 0.0 0.0 0.00 0.02 0.02 55 1018.5
20260504004514 70 116 0.0 2.0 0.00 0.02 0.02 53 1018.4
20260504003017 71 129 0.0 2.0 0.00 0.02 0.02 50 1018.4
20260504001522 72 134 0.0 2.0 0.00 0.02 0.02 49 1018.4
20260504000007 73 127 1.0 4.0 0.00 0.02 0.02 47 1018.4
20260503234508 74 120 0.0 5.0 0.00 0.02 0.02 46 1018.6
20260503233013 75 103 0.0 0.0 0.00 0.02 0.02 44 1018.7
20260503231519 76 113 0.0 0.0 0.00 0.02 0.02 44 1018.7
20260503230025 77 110 0.0 0.0 0.00 0.02 0.02 43 1018.8
20260503224508 77 120 0.0 4.0 0.00 0.02 0.02 42 1018.8
20260503223013 78 67 0.0 0.0 0.00 0.02 0.02 41 1019.2
20260503221517 78 100 0.0 7.0 0.00 0.02 0.02 41 1019.0
20260503220020 79 129 0.0 4.0 0.00 0.02 0.02 39 1019.1
20260503214525 79 92 0.0 0.0 0.00 0.02 0.02 39 1019.4
20260503213008 79 98 0.0 3.0 0.00 0.02 0.02 39 1019.5
20260503211515 80 75 0.0 3.0 0.00 0.02 0.02 35 1019.7
20260503210016 79 18 0.0 5.0 0.00 0.02 0.02 36 1019.9
20260503204527 80 39 0.0 0.0 0.00 0.02 0.02 36 1020.0
20260503203028 79 101 0.0 0.0 0.00 0.02 0.02 36 1020.3
20260503201511 80 42 0.0 4.0 0.00 0.02 0.02 34 1020.6
20260503200014 80 68 0.0 3.0 0.00 0.02 0.02 37 1020.8
20260503194523 80 41 0.0 4.0 0.00 0.02 0.02 36 1020.8
20260503193037 80 82 0.0 5.0 0.00 0.02 0.02 34 1021.2
20260503191526 79 30 0.0 3.0 0.00 0.02 0.02 32 1021.5
20260503190010 79 4 1.0 5.0 0.00 0.02 0.02 30 1021.8
20260503184524 79 6 0.0 5.0 0.00 0.02 0.02 33 1021.9
20260503183021 80 60 1.0 6.0 0.00 0.02 0.02 30 1022.2
20260503181508 79 37 0.0 4.0 0.00 0.02 0.02 33 1022.4
20260503180016 79 256 0.0 3.0 0.00 0.02 0.02 30 1022.5
20260503174515 79 251 0.0 2.0 0.00 0.02 0.02 31 1022.7
20260503173023 79 73 0.0 2.0 0.00 0.02 0.02 32 1023.1
20260503171524 79 5 0.0 3.0 0.00 0.02 0.02 33 1023.2
20260503081503 52 232 0.0 0.0 0.00 0.01 0.00 73 1021.1
20260503071508 53 232 0.0 0.0 0.00 0.01 0.00 75 1020.9